Beaver Falls, PA

4:57 PM EST on December 08, 2019 (GMT -0500)
Beaver County

Weather History for KBVI - November, 2019

Change the Weather History Date:

Sunday, November 17, 2019

  Actual Average Record
Temperature  
Mean Temperature 38 °F -  
Max Temperature 48 °F 46 °F 64 °F (2015)
Min Temperature 28 °F 35 °F 15 °F (1997)
Degree Days  
Heating Degree Days 27    
Moisture  
Dew Point 21 °F    
Average Humidity 52    
Maximum Humidity 83    
Minimum Humidity 38    
Precipitation  
Precipitation 0.00 in - - ()
Sea Level Pressure  
Sea Level Pressure 30.07 in    
Wind  
Wind Speed 6 mph (ESE)    
Max Wind Speed 10 mph    
Max Gust Speed 16 mph    
Visibility 10 miles    
Events      
Averages and records for this station are not official NWS values.
T = Trace of Precipitation, MM = Missing Value Source: NWS Daily Summary

Daily Weather History Graph

Daily Weather History Graph

Search for Another Location

Airport or City:

Astronomy

Nov. 17, 2019 Rise Set
Actual Time 7:10 AM EST 5:01 PM EST
Civil Twilight 6:41 AM EST 5:31 PM EST
Nautical Twilight 6:07 AM EST 6:04 PM EST
Astronomical Twilight 5:35 AM EST 6:37 PM EST
Moon 9:36 PM EST (11/17) 11:55 AM EST (11/17)
Length of Visible Light 10h 50m
Length of Day
9h 51m
Waning Gibbous, 73% of the Moon is Illuminated
Nov 17
Waning Gibbous
Nov 19
Last Quarter
Nov 26
New
Dec 4
First Quarter
Dec 12
Full

Hourly Weather History & Observations

Time (EST) Temp. Windchill Dew Point Humidity Pressure Visibility Wind Dir Wind Speed Gust Speed Precip Events Conditions
12:15 AM 31.5 °F 24.9 °F 8.2 °F 38% 30.23 in 10.0 mi East 6.9 mph - N/A   Clear
12:35 AM 31.1 °F 25.4 °F 8.4 °F 39% 30.22 in 10.0 mi East 5.8 mph - N/A   Clear
12:55 AM 30.7 °F 24.1 °F 8.4 °F 39% 30.22 in 10.0 mi East 6.9 mph - N/A   Clear
12:56 AM 30.7 °F 24.9 °F 8.4 °F 39% 30.22 in 10.0 mi East 5.8 mph - N/A   Clear
1:16 AM 30.6 °F 24.7 °F 8.2 °F 39% 30.22 in 10.0 mi East 5.8 mph - N/A   Clear
1:35 AM 30.2 °F 23.4 °F 8.4 °F 40% 30.21 in 10.0 mi East 6.9 mph - N/A   Clear
1:55 AM 30.2 °F 24.3 °F 8.2 °F 40% 30.21 in 10.0 mi East 5.8 mph - N/A   Clear
1:56 AM 30.2 °F 24.3 °F 8.2 °F 40% 30.21 in 10.0 mi East 5.8 mph - N/A   Clear
2:15 AM 30.2 °F 24.3 °F 8.1 °F 39% 30.21 in 10.0 mi East 5.8 mph - N/A   Clear
2:16 AM 30.2 °F 24.3 °F 8.1 °F 39% 30.21 in 10.0 mi East 5.8 mph - N/A   Clear
2:36 AM 30.2 °F 23.4 °F 7.7 °F 39% 30.21 in 10.0 mi ESE 6.9 mph - N/A   Clear
2:55 AM 30.0 °F 24.1 °F 7.7 °F 39% 30.21 in 10.0 mi East 5.8 mph - N/A   Clear
3:15 AM 29.8 °F 23.9 °F 7.3 °F 39% 30.20 in 10.0 mi East 5.8 mph - N/A   Clear
3:35 AM 29.7 °F 24.7 °F 7.3 °F 39% 30.20 in 10.0 mi ESE 4.6 mph - N/A   Clear
3:55 AM 29.7 °F 22.0 °F 6.8 °F 38% 30.20 in 10.0 mi ESE 8.1 mph - N/A   Clear
3:56 AM 29.7 °F 22.8 °F 6.8 °F 38% 30.20 in 10.0 mi East 6.9 mph - N/A   Clear
4:15 AM 29.5 °F 22.5 °F 7.0 °F 39% 30.20 in 10.0 mi ESE 6.9 mph - N/A   Clear
4:35 AM 29.3 °F 22.3 °F 7.0 °F 39% 30.18 in 10.0 mi ESE 6.9 mph - N/A   Clear
4:56 AM 29.3 °F 22.3 °F 7.2 °F 39% 30.18 in 10.0 mi ESE 6.9 mph - N/A   Clear
5:15 AM 29.3 °F 22.3 °F 7.5 °F 40% 30.18 in 10.0 mi ESE 6.9 mph - N/A   Clear
5:35 AM 29.3 °F 23.2 °F 8.1 °F 41% 30.18 in 10.0 mi ESE 5.8 mph - N/A   Clear
5:36 AM 29.3 °F 23.2 °F 8.2 °F 41% 30.18 in 10.0 mi ESE 5.8 mph - N/A   Clear
5:55 AM 29.1 °F 23.0 °F 9.1 °F 43% 30.17 in 10.0 mi ESE 5.8 mph - N/A   Clear
6:15 AM 29.1 °F 23.0 °F 9.5 °F 44% 30.17 in 10.0 mi ESE 5.8 mph - N/A   Clear
6:35 AM 28.4 °F 22.2 °F 10.4 °F 47% 30.17 in 10.0 mi ESE 5.8 mph - N/A   Clear
6:55 AM 28.4 °F 23.3 °F 11.1 °F 48% 30.17 in 10.0 mi ESE 4.6 mph - N/A   Clear
7:15 AM 28.4 °F 23.3 °F 11.7 °F 50% 30.17 in 10.0 mi East 4.6 mph - N/A   Clear
7:35 AM 28.9 °F 23.9 °F 12.4 °F 50% 30.16 in 10.0 mi East 4.6 mph - N/A   Clear
7:36 AM 28.9 °F 23.9 °F 12.6 °F 50% 30.16 in 10.0 mi East 4.6 mph - N/A   Clear
7:55 AM 30.2 °F 24.3 °F 13.8 °F 51% 30.16 in 10.0 mi ESE 5.8 mph - N/A   Clear
7:56 AM 30.2 °F 24.3 °F 14.0 °F 51% 30.16 in 10.0 mi ESE 5.8 mph - N/A   Clear
8:15 AM 31.5 °F 26.8 °F 15.6 °F 52% 30.16 in 10.0 mi ESE 4.6 mph - N/A   Clear
8:35 AM 32.2 °F 26.7 °F 17.1 °F 54% 30.16 in 10.0 mi ESE 5.8 mph - N/A   Clear
8:55 AM 33.4 °F 26.6 °F 18.1 °F 54% 30.16 in 10.0 mi ESE 8.1 mph - N/A   Clear
8:56 AM 33.4 °F 25.9 °F 18.1 °F 54% 30.16 in 10.0 mi ESE 9.2 mph - N/A   Clear
9:15 AM 34.7 °F 28.8 °F 19.2 °F 53% 30.15 in 10.0 mi ESE 6.9 mph - N/A   Clear
9:16 AM 34.9 °F 29.0 °F 19.4 °F 53% 30.15 in 10.0 mi ESE 6.9 mph - N/A   Clear
9:35 AM 35.8 °F 29.4 °F 20.1 °F 53% 30.15 in 10.0 mi ESE 8.1 mph - N/A   Clear
9:47 AM 35.6 °F 29.2 °F 21.2 °F 56% 30.15 in 10.0 mi SE 8.1 mph - N/A   Clear
9:55 AM 36.9 °F 31.4 °F 21.2 °F 53% 30.15 in 10.0 mi ESE 6.9 mph - N/A   Clear
9:56 AM 37.0 °F 31.6 °F 21.2 °F 53% 30.15 in 10.0 mi ESE 6.9 mph - N/A   Clear
10:15 AM 37.9 °F 32.7 °F 21.9 °F 53% 30.14 in 10.0 mi ESE 6.9 mph - N/A   Clear
10:16 AM 37.9 °F 32.7 °F 21.9 °F 53% 30.14 in 10.0 mi ESE 6.9 mph - N/A   Clear
10:35 AM 39.7 °F 34.9 °F 23.0 °F 51% 30.13 in 10.0 mi SE 6.9 mph - N/A   Clear
10:47 AM 41.0 °F 35.8 °F 23.0 °F 49% 30.12 in 10.0 mi SSE 8.1 mph - N/A   Clear
10:55 AM 41.2 °F 35.0 °F 23.4 °F 49% 30.12 in 10.0 mi ESE 10.4 mph 16.1 mph N/A   Clear
11:15 AM 41.4 °F 36.2 °F 23.5 °F 49% 30.12 in 10.0 mi SE 8.1 mph - N/A   Clear
11:16 AM 41.4 °F 36.8 °F 23.4 °F 49% 30.12 in 10.0 mi SE 6.9 mph - N/A   Clear
11:35 AM 42.8 °F 38.6 °F 23.7 °F 47% 30.11 in 10.0 mi ESE 6.9 mph - N/A   Clear
11:47 AM 42.8 °F 38.0 °F 24.8 °F 49% 30.10 in 10.0 mi SE 8.1 mph - N/A   Clear
11:55 AM 43.0 °F 38.2 °F 24.1 °F 47% 30.10 in 10.0 mi SE 8.1 mph - N/A   Clear
11:56 AM 43.2 °F 38.4 °F 24.3 °F 47% 30.10 in 10.0 mi SE 8.1 mph - N/A   Clear
12:15 PM 44.1 °F 41.5 °F 24.4 °F 46% 30.08 in 10.0 mi ESE 4.6 mph - N/A   Clear
12:16 PM 44.2 °F 40.3 °F 24.6 °F 46% 30.08 in 10.0 mi ESE 6.9 mph - N/A   Clear
12:35 PM 45.0 °F 41.8 °F 24.4 °F 45% 30.06 in 10.0 mi ESE 5.8 mph - N/A   Clear
12:47 PM 44.6 °F 40.2 °F 24.8 °F 46% 30.05 in 10.0 mi South 8.1 mph - N/A   Clear
1:15 PM 47.3 °F - 25.0 °F 42% 30.05 in 10.0 mi SSE 5.8 mph - N/A   Clear
1:16 PM 47.3 °F - 24.8 °F 41% 30.05 in 10.0 mi SE 6.9 mph - N/A   Clear
1:35 PM 46.8 °F - 24.8 °F 42% 30.03 in 10.0 mi SSE 8.1 mph - N/A   Clear
1:36 PM 46.9 °F - 24.8 °F 42% 30.03 in 10.0 mi SE 6.9 mph - N/A   Clear
1:47 PM 46.4 °F 43.5 °F 24.8 °F 43% 30.03 in 10.0 mi SE 5.8 mph - N/A   Clear
1:55 PM 47.7 °F - 25.0 °F 41% 30.03 in 10.0 mi ESE 5.8 mph - N/A   Clear
1:56 PM 47.5 °F - 25.0 °F 41% 30.03 in 10.0 mi East 4.6 mph - N/A   Clear
2:15 PM 47.8 °F - 25.3 °F 41% 30.01 in 10.0 mi SSE 6.9 mph - N/A   Clear
2:35 PM 47.5 °F - 25.7 °F 43% 30.01 in 10.0 mi ESE 6.9 mph - N/A   Clear
2:47 PM 48.2 °F - 26.6 °F 43% 30.00 in 10.0 mi SE 6.9 mph - N/A   Clear
2:55 PM 47.7 °F - 25.9 °F 43% 30.00 in 10.0 mi East 4.6 mph - N/A   Clear
2:56 PM 47.7 °F - 25.9 °F 43% 30.00 in 10.0 mi East 3.5 mph - N/A   Clear
3:15 PM 46.9 °F - 26.1 °F 44% 30.00 in 10.0 mi ESE 5.8 mph - N/A   Clear
3:35 PM 46.6 °F - 26.1 °F 45% 30.00 in 10.0 mi ESE 5.8 mph - N/A   Clear
3:47 PM 46.4 °F 44.3 °F 26.6 °F 46% 30.00 in 10.0 mi East 4.6 mph - N/A   Clear
3:55 PM 46.0 °F 43.1 °F 26.1 °F 46% 30.00 in 10.0 mi East 5.8 mph - N/A   Clear
4:15 PM 45.9 °F 43.6 °F 26.6 °F 47% 29.99 in 10.0 mi East 4.6 mph - N/A   Clear
4:16 PM 45.9 °F 42.9 °F 26.6 °F 47% 29.99 in 10.0 mi East 5.8 mph - N/A   Clear
4:35 PM 44.8 °F 43.3 °F 27.0 °F 50% 29.99 in 10.0 mi ESE 3.5 mph - N/A   Clear
4:47 PM 44.6 °F 43.1 °F 26.6 °F 49% 29.98 in 10.0 mi ESE 3.5 mph - N/A   Clear
4:55 PM 43.9 °F 42.3 °F 27.1 °F 52% 29.98 in 10.0 mi East 3.5 mph - N/A   Clear
4:56 PM 43.7 °F 41.1 °F 27.1 °F 52% 29.98 in 10.0 mi East 4.6 mph - N/A   Clear
5:15 PM 43.0 °F 40.3 °F 27.3 °F 54% 29.98 in 10.0 mi East 4.6 mph - N/A   Clear
5:35 PM 42.6 °F 40.9 °F 27.5 °F 55% 29.98 in 10.0 mi East 3.5 mph - N/A   Clear
5:55 PM 42.1 °F 40.2 °F 27.5 °F 56% 29.98 in 10.0 mi East 3.5 mph - N/A   Clear
5:56 PM 42.1 °F 39.2 °F 27.5 °F 56% 29.98 in 10.0 mi East 4.6 mph - N/A   Clear
6:15 PM 41.4 °F 38.4 °F 27.5 °F 58% 29.98 in 10.0 mi East 4.6 mph - N/A   Clear
6:16 PM 41.4 °F 39.4 °F 27.5 °F 58% 29.98 in 10.0 mi East 3.5 mph - N/A   Clear
6:35 PM 41.2 °F 38.2 °F 28.0 °F 60% 29.98 in 10.0 mi East 4.6 mph - N/A   Clear
6:55 PM 40.8 °F 36.9 °F 28.2 °F 61% 29.98 in 10.0 mi ESE 5.8 mph - N/A   Clear
7:15 PM 40.5 °F 36.5 °F 28.4 °F 62% 29.97 in 10.0 mi ESE 5.8 mph - N/A   Clear
7:16 PM 40.3 °F 36.3 °F 28.4 °F 63% 29.97 in 10.0 mi ESE 5.8 mph - N/A   Clear
7:35 PM 39.6 °F 35.4 °F 28.4 °F 64% 29.96 in 10.0 mi ESE 5.8 mph - N/A   Clear
7:55 PM 39.2 °F 34.2 °F 28.4 °F 65% 29.95 in 10.0 mi ESE 6.9 mph - N/A   Clear
7:56 PM 39.2 °F 34.2 °F 28.6 °F 66% 29.95 in 10.0 mi ESE 6.9 mph - N/A   Clear
8:15 PM 38.5 °F 33.4 °F 28.8 °F 68% 29.95 in 10.0 mi ESE 6.9 mph - N/A   Clear
8:35 PM 37.8 °F 34.2 °F 28.9 °F 71% 29.94 in 10.0 mi ESE 4.6 mph - N/A   Clear
8:55 PM 37.4 °F 32.8 °F 29.3 °F 73% 29.93 in 10.0 mi ESE 5.8 mph - N/A   Clear
9:15 PM 37.0 °F 31.6 °F 29.3 °F 74% 29.92 in 10.0 mi ESE 6.9 mph - N/A   Clear
9:35 PM 36.5 °F 32.7 °F 29.5 °F 76% 29.92 in 10.0 mi ESE 4.6 mph - N/A   Clear
9:55 PM 36.0 °F 31.1 °F 29.3 °F 77% 29.91 in 10.0 mi ESE 5.8 mph - N/A   Clear
9:56 PM 36.0 °F 31.1 °F 29.3 °F 77% 29.91 in 10.0 mi ESE 5.8 mph - N/A   Clear
10:15 PM 35.6 °F 30.7 °F 29.3 °F 78% 29.91 in 10.0 mi ESE 5.8 mph - N/A   Clear
10:16 PM 35.6 °F 31.7 °F 29.3 °F 78% 29.91 in 10.0 mi ESE 4.6 mph - N/A   Clear
10:35 PM 35.1 °F 31.0 °F 29.3 °F 80% 29.90 in 10.0 mi East 4.6 mph - N/A   Clear
10:36 PM 35.1 °F 31.0 °F 29.3 °F 80% 29.90 in 10.0 mi East 4.6 mph - N/A   Clear
10:55 PM 34.7 °F 31.8 °F 29.3 °F 81% 29.90 in 10.0 mi ESE 3.5 mph - N/A   Clear
10:56 PM 34.7 °F 31.8 °F 29.3 °F 81% 29.90 in 10.0 mi East 3.5 mph - N/A   Clear
11:15 PM 34.7 °F 30.6 °F 29.3 °F 81% 29.89 in 10.0 mi ESE 4.6 mph - N/A   Clear
11:35 PM 34.3 °F 30.2 °F 29.3 °F 82% 29.88 in 10.0 mi ESE 4.6 mph - N/A   Clear
11:55 PM 34.0 °F 29.8 °F 29.3 °F 83% 29.88 in 10.0 mi East 4.6 mph - N/A   Clear